Home > Weather > Germany > Bocholt > Past weeks

Flag for Germany Weather past 2 weeks in Bocholt, North Rhine-Westphalia, Germany

54 °F


Feels Like: 50 °F
Forecast: 42 / 49 °F
Wind: 13 mph from Southwest

Location: Niederrhein

Current Time: Dec 2, 2015 at 1:26:36 AM

Latest Report: Dec 1, 2015 at 11:50 PM

Visibility: 10 mi

Pressure: 30.27 "Hg

Humidity: 82%

Dew point: 48 °F

Location of BocholtLocation

Historic Weather in Bocholt — Graph


Bocholt temperature yesterday

Maximum temperature yesterday: 54 °F (at 5:20 PM)
Minimum temperature yesterday: 46 °F (at 4:50 AM)
Average temperature yesterday: 50 °F

Past Weeks' High & Low Weather Summary

High61 °F (Nov 17, 12:50 PM)100% (Nov 25, 8:50 AM)30.27 "Hg (Nov 25, 8:50 AM)
Low32 °F (Nov 23, 6:50 AM)59% (Nov 18, 6:50 AM)29.39 "Hg (Nov 21, 4:50 AM)
Average45 °F83%29.87 "Hg
* Reported Nov 16 11:20 PM — Dec 1 11:50 PM, Bocholt, Weather by CustomWeather, © 2015

Note: Actual official high and low records may vary slightly from our data, if they occured in-between our weather recording intervals... More about our weather records


Bocholt weather history for previous 24 hours

Time TempWeatherWind HumidityBarometerVisibility
11:50 PM
Tue, Dec 1
54 °FClear.13 mph82%30.27 "Hg10 mi
10:50 PM54 °FPassing clouds.12 mph82%30.27 "HgN/A
10:20 PM54 °FPassing clouds.14 mph82%30.27 "HgN/A
9:50 PM54 °FPassing clouds.15 mph82%30.27 "HgN/A
9:20 PM54 °FPassing clouds.15 mph88%30.27 "HgN/A
8:50 PM54 °FPassing clouds.13 mph88%30.27 "HgN/A
8:20 PM54 °FPassing clouds.10 mph88%30.27 "HgN/A
7:50 PM54 °FPassing clouds.14 mph88%30.24 "HgN/A
7:20 PM54 °FPassing clouds.15 mph94%30.27 "Hg6 mi
6:50 PM54 °FPassing clouds.12 mph94%30.24 "Hg4 mi
6:20 PM54 °FPassing clouds.13 mph94%30.24 "Hg4 mi
5:50 PM54 °FPartly cloudy.13 mph94%30.24 "Hg4 mi
5:20 PM54 °FBroken clouds.9 mph94%30.24 "Hg4 mi
4:50 PM52 °FLight rain. Fog.6 mph94%30.24 "Hg1 mi
4:20 PM50 °FLight rain. Fog.6 mph100%30.21 "Hg2 mi
3:50 PM50 °FDrizzle. Fog.6 mph94%30.21 "Hg2 mi
3:20 PM48 °FLight rain. Fog.5 mph100%30.21 "Hg2 mi
2:50 PM48 °FDrizzle. Fog.5 mph100%30.21 "Hg2 mi
2:20 PM48 °FLight rain. Partly sunny.5 mph94%30.21 "Hg4 mi
1:50 PM48 °FLight rain. Fog.5 mph94%30.24 "Hg3 mi
12:50 PM48 °FFog.1 mph94%30.24 "Hg3 mi
12:20 PM46 °FFog.3 mph100%30.24 "Hg3 mi
11:50 AM46 °FPartly sunny.6 mph100%30.21 "Hg4 mi
11:20 AM48 °FPartly sunny.6 mph94%30.21 "Hg4 mi
10:50 AM46 °FDrizzle. Partly sunny.7 mph100%30.21 "Hg5 mi
10:20 AM46 °FDrizzle. Partly sunny.7 mph93%30.21 "Hg6 mi
9:50 AM46 °FDrizzle. Partly sunny.6 mph93%30.21 "HgN/A
8:50 AM46 °FPassing clouds.3 mph93%30.18 "HgN/A
8:20 AM46 °FPassing clouds.No wind93%30.18 "HgN/A
7:50 AM46 °FPassing clouds.2 mph93%30.18 "HgN/A
7:20 AM46 °FClear.3 mph87%30.15 "Hg10 mi
6:50 AM46 °FPassing clouds.3 mph87%30.15 "HgN/A
6:20 AM46 °FPassing clouds.No wind87%30.15 "HgN/A
5:50 AM46 °FPassing clouds.2 mph87%30.12 "HgN/A
5:20 AM46 °FPassing clouds.2 mph87%30.12 "HgN/A
4:50 AM46 °FPassing clouds.2 mph87%30.12 "HgN/A
Weather by CustomWeather, © 2015

See weather overviewHow to use our weather pages